Аэропорт
Тбилиси (UGTB)

 UGTB / TBS
ЗЦ Ростов-на-Дону
Тбилиси* (UGGG)
Тбилиси (UGGG)
 41.66920, 44.95470  / 1624 ft

 UGTB 251200Z 10008KT 070V130 9999 SCT036CB 30/11 Q1016 TEMPO TSRA
 TAF UGTB 250500Z 2506/2606 31016KT 9999 SCT050CB TX35/2512Z TN21/2603Z BECMG 2506/2508 31008KT NSC BECMG 2515/2517 SCT050CB PROB40 TEMPO 2517/2522 VRB15KT TSRA
UGTB_AIP
Название сценария Тип сценария Flight Simulator 9 Flight Simulator X Prepar3D v2 Prepar3D v3 Prepar3D v4 xPlane
Tbilisi Freeware бесплатный
Tbilisi Freeware бесплатный

Аэропорт Тбилиси имени Шота Руставели

IATA: TBS, ICAO: UGTB

 

Международный аэропорт Тбилиси имени Шота Руставели — главный аэропорт Грузии, расположен недалеко от столицы Тбилиси с восточной стороны. В феврале 2007 года была завершена реконструкция аэропорта. Были построены новый международный терминал, паркинг, усовершенствованы перрон, рулёжные дорожки и взлётно-посадочные полосы, а также приобретено погрузочно-разгрузочное оборудование. Пропускная способность нового здания терминала — 2,8 млн пассажиров в год.

Взлетно-посадочные полосы (ВПП)
Номер Длина Поверхность ILS
13R 3000 м бетон CATI 110.3
31L CATI 108.9

 

Аэропорт грузинской столицы является крупнейшим в стране и принимает все типы воздушных судов кроме А380.

Фототеррейн Тбилиси: http://ftxdes.blogspot.ru/2016/05/project-open-scenery-tbilisi-georgia.html



2019 © VATRUS division (Privacy Policy)